Time,TemperatureF,DewpointF,PressureIn,WindDirection,WindDirectionDegrees,WindSpeedMPH,WindSpeedGustMPH,Humidity,HourlyPrecipIn,Conditions,Clouds,dailyrainin,SoftwareType,DateUTC
2013-01-10 00:03:00,57.0,53.0,30.43,WNW,285,0.0,3.0,85,0.00,,,0.00,,2013-01-10 05:03:00,
2013-01-10 00:12:00,57.0,53.0,30.43,WNW,285,0.0,3.0,85,0.00,,,0.00,,2013-01-10 05:12:00,
2013-01-10 00:22:00,56.0,52.0,30.43,WNW,285,0.0,0.0,88,0.00,,,0.00,,2013-01-10 05:22:00,
2013-01-10 00:33:00,54.0,52.0,30.43,SW,218,0.0,2.0,94,0.00,,,0.00,,2013-01-10 05:33:00,
2013-01-10 00:43:00,54.0,52.0,30.43,SW,218,0.0,2.0,94,0.00,,,0.00,,2013-01-10 05:43:00,
2013-01-10 00:53:00,53.0,52.0,30.42,SW,218,0.0,0.0,96,0.00,,,0.00,,2013-01-10 05:53:00,
2013-01-10 01:02:00,54.0,53.0,30.42,SW,218,0.0,0.0,96,0.00,,,0.00,,2013-01-10 06:02:00,
2013-01-10 01:12:00,54.0,53.0,30.42,SW,218,0.0,0.0,96,0.00,,,0.00,,2013-01-10 06:12:00,
2013-01-10 01:22:00,54.0,53.0,30.42,SW,218,0.0,0.0,97,0.00,,,0.00,,2013-01-10 06:22:00,
2013-01-10 01:32:00,54.0,53.0,30.42,SW,218,0.0,0.0,97,0.00,,,0.00,,2013-01-10 06:32:00,
2013-01-10 01:42:00,54.0,53.0,30.42,SW,218,0.0,0.0,97,0.00,,,0.00,,2013-01-10 06:42:00,
2013-01-10 01:52:00,53.0,52.0,30.42,SW,218,0.0,0.0,97,0.00,,,0.00,,2013-01-10 06:52:00,
2013-01-10 02:02:00,54.0,53.0,30.41,NW,309,1.0,4.0,97,0.00,,,0.00,,2013-01-10 07:02:00,
2013-01-10 02:12:00,54.0,53.0,30.41,NW,309,1.0,4.0,97,0.00,,,0.00,,2013-01-10 07:12:00,
2013-01-10 02:22:00,53.0,52.0,30.41,West,273,0.0,2.0,98,0.00,,,0.00,,2013-01-10 07:22:00,
2013-01-10 02:32:00,53.0,52.0,30.41,West,273,0.0,0.0,98,0.00,,,0.00,,2013-01-10 07:32:00,
2013-01-10 02:42:00,53.0,52.0,30.41,West,273,0.0,0.0,98,0.00,,,0.00,,2013-01-10 07:42:00,
2013-01-10 02:52:00,55.0,54.0,30.42,West,281,3.0,5.0,95,0.00,,,0.00,,2013-01-10 07:52:00,
2013-01-10 03:02:00,54.0,53.0,30.42,WNW,295,0.0,3.0,96,0.00,,,0.00,,2013-01-10 08:02:00,
2013-01-10 03:12:00,54.0,53.0,30.42,WNW,295,0.0,3.0,96,0.00,,,0.00,,2013-01-10 08:12:00,
2013-01-10 03:22:00,53.0,53.0,30.42,WNW,283,3.0,4.0,99,0.00,,,0.00,,2013-01-10 08:22:00,
2013-01-10 03:32:00,55.0,54.0,30.43,WNW,288,3.0,5.0,95,0.00,,,0.00,,2013-01-10 08:32:00,
2013-01-10 03:42:00,55.0,54.0,30.43,WNW,288,3.0,5.0,95,0.00,,,0.00,,2013-01-10 08:42:00,
2013-01-10 03:53:00,55.0,54.0,30.43,WNW,288,3.0,7.0,97,0.00,,,0.00,,2013-01-10 08:53:00,
2013-01-10 04:02:00,54.0,53.0,30.43,NW,308,2.0,3.0,98,0.00,,,0.00,,2013-01-10 09:02:00,
2013-01-10 04:12:00,54.0,53.0,30.43,NW,308,2.0,3.0,98,0.00,,,0.00,,2013-01-10 09:12:00,
2013-01-10 04:22:00,53.0,53.0,30.42,NNW,330,0.0,4.0,99,0.00,,,0.00,,2013-01-10 09:22:00,
2013-01-10 04:32:00,53.0,53.0,30.41,North,350,2.0,4.0,99,0.00,,,0.00,,2013-01-10 09:32:00,
2013-01-10 04:42:00,53.0,53.0,30.41,North,350,2.0,4.0,99,0.00,,,0.00,,2013-01-10 09:42:00,
2013-01-10 04:52:00,54.0,54.0,30.41,NNW,333,0.0,5.0,99,0.00,,,0.00,,2013-01-10 09:52:00,
2013-01-10 05:03:00,53.0,53.0,30.42,NE,46,1.0,4.0,99,0.00,,,0.00,,2013-01-10 10:03:00,
2013-01-10 05:12:00,53.0,53.0,30.42,NE,46,1.0,4.0,99,0.00,,,0.00,,2013-01-10 10:12:00,
2013-01-10 05:22:00,53.0,53.0,30.42,NNW,333,0.0,4.0,100,0.00,,,0.00,,2013-01-10 10:22:00,
2013-01-10 05:32:00,53.0,53.0,30.43,NNW,330,2.0,3.0,100,0.00,,,0.00,,2013-01-10 10:32:00,
2013-01-10 05:42:00,53.0,53.0,30.43,NNW,330,2.0,3.0,100,0.00,,,0.00,,2013-01-10 10:42:00,
2013-01-10 05:53:00,53.0,53.0,30.43,NW,311,0.0,4.0,100,0.00,,,0.00,,2013-01-10 10:53:00,
2013-01-10 06:02:00,53.0,53.0,30.43,North,11,2.0,5.0,100,0.00,,,0.00,,2013-01-10 11:02:00,
2013-01-10 06:12:00,53.0,53.0,30.43,North,11,2.0,5.0,100,0.00,,,0.00,,2013-01-10 11:12:00,
2013-01-10 06:22:00,52.0,52.0,30.44,NNW,336,1.0,2.0,100,0.00,,,0.00,,2013-01-10 11:22:00,
2013-01-10 06:33:00,53.0,53.0,30.44,North,1,2.0,4.0,100,0.00,,,0.00,,2013-01-10 11:33:00,
2013-01-10 06:43:00,53.0,53.0,30.44,North,1,2.0,4.0,100,0.00,,,0.00,,2013-01-10 11:43:00,
2013-01-10 06:53:00,52.0,52.0,30.45,NNW,335,3.0,4.0,100,0.00,,,0.00,,2013-01-10 11:53:00,
2013-01-10 07:03:00,53.0,53.0,30.45,NNE,17,2.0,4.0,100,0.00,,,0.00,,2013-01-10 12:03:00,
2013-01-10 07:12:00,53.0,53.0,30.45,NNE,17,2.0,4.0,100,0.00,,,0.00,,2013-01-10 12:12:00,
2013-01-10 07:22:00,53.0,53.0,30.46,NNE,14,3.0,5.0,100,0.00,,,0.00,,2013-01-10 12:22:00,
2013-01-10 07:33:00,53.0,53.0,30.46,North,4,5.0,7.0,100,0.00,,,0.00,,2013-01-10 12:33:00,
2013-01-10 07:43:00,53.0,53.0,30.46,North,4,5.0,7.0,100,0.00,,,0.00,,2013-01-10 12:43:00,
2013-01-10 07:53:00,53.0,53.0,30.47,NNE,25,3.0,7.0,100,0.00,,,0.00,,2013-01-10 12:53:00,
2013-01-10 08:02:00,54.0,54.0,30.47,NNE,28,3.0,5.0,100,0.00,,,0.00,,2013-01-10 13:02:00,
2013-01-10 08:12:00,54.0,54.0,30.47,NNE,28,3.0,5.0,100,0.00,,,0.00,,2013-01-10 13:12:00,
2013-01-10 08:22:00,54.0,54.0,30.48,NNE,28,2.0,6.0,99,0.00,,,0.00,,2013-01-10 13:22:00,
2013-01-10 08:32:00,55.0,54.0,30.49,NNW,335,4.0,8.0,98,0.00,,,0.00,,2013-01-10 13:32:00,
2013-01-10 08:42:00,55.0,54.0,30.49,NNW,335,4.0,8.0,98,0.00,,,0.00,,2013-01-10 13:42:00,
2013-01-10 08:53:00,56.0,55.0,30.49,NE,44,4.0,8.0,95,0.00,,,0.00,,2013-01-10 13:53:00,
2013-01-10 09:02:00,57.0,53.0,30.49,NE,49,7.0,10.0,85,0.00,,,0.00,,2013-01-10 14:02:00,
2013-01-10 09:12:00,57.0,53.0,30.49,NE,49,7.0,10.0,85,0.00,,,0.00,,2013-01-10 14:12:00,
2013-01-10 09:22:00,59.0,52.0,30.49,NE,35,9.0,14.0,79,0.00,,,0.00,,2013-01-10 14:22:00,
2013-01-10 09:33:00,60.0,52.0,30.48,ENE,58,5.0,13.0,75,0.00,,,0.00,,2013-01-10 14:33:00,
2013-01-10 09:43:00,60.0,52.0,30.48,ENE,58,5.0,13.0,75,0.00,,,0.00,,2013-01-10 14:43:00,
2013-01-10 09:53:00,61.0,52.0,30.48,ENE,62,5.0,10.0,73,0.00,,,0.00,,2013-01-10 14:53:00,
2013-01-10 10:03:00,63.0,53.0,30.48,North,10,8.0,14.0,69,0.00,,,0.00,,2013-01-10 15:03:00,
2013-01-10 10:12:00,63.0,53.0,30.48,North,10,8.0,14.0,69,0.00,,,0.00,,2013-01-10 15:12:00,
2013-01-10 10:23:00,63.0,52.0,30.48,NNE,27,8.0,12.0,67,0.00,,,0.00,,2013-01-10 15:23:00,
2013-01-10 10:33:00,63.0,50.0,30.48,SE,141,4.0,11.0,63,0.00,,,0.00,,2013-01-10 15:33:00,
2013-01-10 10:43:00,63.0,50.0,30.48,SE,141,4.0,11.0,63,0.00,,,0.00,,2013-01-10 15:43:00,
2013-01-10 10:53:00,63.0,50.0,30.47,NE,52,4.0,12.0,63,0.00,,,0.00,,2013-01-10 15:53:00,
2013-01-10 11:03:00,63.0,51.0,30.47,NNE,23,8.0,11.0,64,0.00,,,0.00,,2013-01-10 16:03:00,
2013-01-10 11:13:00,63.0,51.0,30.47,NNE,23,8.0,11.0,64,0.00,,,0.00,,2013-01-10 16:13:00,
2013-01-10 11:23:00,63.0,50.0,30.47,NE,34,6.0,11.0,63,0.00,,,0.00,,2013-01-10 16:23:00,
2013-01-10 11:33:00,64.0,51.0,30.46,North,359,4.0,9.0,62,0.00,,,0.00,,2013-01-10 16:33:00,
2013-01-10 11:43:00,64.0,51.0,30.46,North,359,4.0,9.0,62,0.00,,,0.00,,2013-01-10 16:43:00,
2013-01-10 11:53:00,64.0,49.0,30.45,NE,38,5.0,8.0,59,0.00,,,0.00,,2013-01-10 16:53:00,
2013-01-10 12:03:00,64.0,49.0,30.44,North,357,4.0,8.0,59,0.00,,,0.00,,2013-01-10 17:03:00,
2013-01-10 12:12:00,64.0,49.0,30.44,North,357,4.0,8.0,59,0.00,,,0.00,,2013-01-10 17:12:00,
2013-01-10 12:22:00,65.0,48.0,30.43,NE,41,5.0,9.0,54,0.00,,,0.00,,2013-01-10 17:22:00,
2013-01-10 12:33:00,65.0,46.0,30.42,North,4,6.0,10.0,51,0.00,,,0.00,,2013-01-10 17:33:00,
2013-01-10 12:42:00,65.0,46.0,30.42,North,4,6.0,10.0,51,0.00,,,0.00,,2013-01-10 17:42:00,
2013-01-10 12:53:00,65.0,45.0,30.42,NE,37,5.0,10.0,49,0.00,,,0.00,,2013-01-10 17:53:00,
2013-01-10 13:03:00,66.0,46.0,30.42,North,10,7.0,9.0,48,0.00,,,0.00,,2013-01-10 18:03:00,
2013-01-10 13:12:00,66.0,46.0,30.41,NNE,25,6.0,9.0,48,0.00,,,0.00,,2013-01-10 18:12:00,
2013-01-10 13:23:00,66.0,46.0,30.41,NNE,25,6.0,9.0,48,0.00,,,0.00,,2013-01-10 18:23:00,
2013-01-10 13:33:00,66.0,45.0,30.41,ESE,108,2.0,9.0,47,0.00,,,0.00,,2013-01-10 18:33:00,
2013-01-10 13:43:00,67.0,46.0,30.40,North,1,3.0,7.0,47,0.00,,,0.00,,2013-01-10 18:43:00,
2013-01-10 13:53:00,67.0,46.0,30.40,North,1,3.0,7.0,47,0.00,,,0.00,,2013-01-10 18:53:00,
2013-01-10 14:03:00,67.0,46.0,30.40,ENE,77,4.0,7.0,46,0.00,,,0.00,,2013-01-10 19:03:00,
2013-01-10 14:13:00,67.0,45.0,30.40,North,349,6.0,9.0,45,0.00,,,0.00,,2013-01-10 19:13:00,
2013-01-10 14:23:00,67.0,45.0,30.40,North,349,6.0,9.0,45,0.00,,,0.00,,2013-01-10 19:23:00,
2013-01-10 14:33:00,67.0,47.0,30.40,East,84,2.0,7.0,49,0.00,,,0.00,,2013-01-10 19:33:00,
2013-01-10 14:43:00,67.0,47.0,30.40,East,84,2.0,7.0,49,0.00,,,0.00,,2013-01-10 19:43:00,
2013-01-10 14:53:00,67.0,46.0,30.39,ENE,70,3.0,9.0,47,0.00,,,0.00,,2013-01-10 19:53:00,
2013-01-10 15:03:00,67.0,47.0,30.39,SE,128,3.0,8.0,49,0.00,,,0.00,,2013-01-10 20:03:00,
2013-01-10 15:13:00,67.0,48.0,30.39,NNE,21,3.0,9.0,50,0.00,,,0.00,,2013-01-10 20:13:00,
2013-01-10 15:24:00,67.0,48.0,30.39,NNE,21,3.0,9.0,50,0.00,,,0.00,,2013-01-10 20:24:00,
2013-01-10 15:33:00,67.0,48.0,30.38,ENE,73,4.0,9.0,50,0.00,,,0.00,,2013-01-10 20:33:00,
2013-01-10 15:43:00,67.0,48.0,30.38,ENE,73,4.0,9.0,50,0.00,,,0.00,,2013-01-10 20:43:00,
2013-01-10 15:53:00,67.0,48.0,30.39,ENE,75,0.0,12.0,50,0.00,,,0.00,,2013-01-10 20:53:00,
2013-01-10 16:04:00,67.0,48.0,30.39,NE,38,3.0,10.0,51,0.00,,,0.00,,2013-01-10 21:04:00,
2013-01-10 16:13:00,66.0,49.0,30.39,ENE,66,4.0,8.0,54,0.00,,,0.00,,2013-01-10 21:13:00,
2013-01-10 16:23:00,66.0,49.0,30.39,ENE,66,4.0,8.0,54,0.00,,,0.00,,2013-01-10 21:23:00,
2013-01-10 16:33:00,66.0,50.0,30.39,SE,135,0.0,8.0,57,0.00,,,0.00,,2013-01-10 21:33:00,
2013-01-10 16:43:00,66.0,50.0,30.39,SE,135,0.0,8.0,57,0.00,,,0.00,,2013-01-10 21:43:00,
2013-01-10 16:53:00,65.0,48.0,30.39,ENE,76,1.0,5.0,55,0.00,,,0.00,,2013-01-10 21:53:00,
2013-01-10 17:03:00,64.0,47.0,30.39,NNE,32,2.0,6.0,53,0.00,,,0.00,,2013-01-10 22:03:00,
2013-01-10 17:12:00,64.0,47.0,30.40,NE,48,0.0,7.0,54,0.00,,,0.00,,2013-01-10 22:12:00,
2013-01-10 17:26:00,64.0,47.0,30.40,NE,48,0.0,7.0,54,0.00,,,0.00,,2013-01-10 22:26:00,
2013-01-10 17:33:00,63.0,47.0,30.40,ENE,58,0.0,6.0,55,0.00,,,0.00,,2013-01-10 22:33:00,
2013-01-10 17:43:00,63.0,47.0,30.40,ENE,58,0.0,6.0,55,0.00,,,0.00,,2013-01-10 22:43:00,
2013-01-10 18:03:00,61.0,46.0,30.40,East,83,1.0,3.0,58,0.00,,,0.00,,2013-01-10 23:03:00,
2013-01-10 18:13:00,59.0,46.0,30.40,NE,51,1.0,3.0,62,0.00,,,0.00,,2013-01-10 23:13:00,
2013-01-10 18:23:00,59.0,46.0,30.40,NE,51,1.0,3.0,62,0.00,,,0.00,,2013-01-10 23:23:00,
2013-01-10 18:33:00,60.0,46.0,30.40,NNE,28,0.0,4.0,60,0.00,,,0.00,,2013-01-10 23:33:00,
2013-01-10 18:43:00,60.0,46.0,30.40,NNE,28,0.0,4.0,60,0.00,,,0.00,,2013-01-10 23:43:00,
2013-01-10 18:53:00,60.0,44.0,30.40,NE,37,4.0,6.0,55,0.00,,,0.00,,2013-01-10 23:53:00,
2013-01-10 19:03:00,60.0,44.0,30.41,ENE,59,3.0,7.0,55,0.00,,,0.00,,2013-01-11 00:03:00,
2013-01-10 19:13:00,59.0,44.0,30.41,ENE,58,0.0,3.0,57,0.00,,,0.00,,2013-01-11 00:13:00,
2013-01-10 19:23:00,59.0,44.0,30.41,ENE,58,0.0,3.0,57,0.00,,,0.00,,2013-01-11 00:23:00,
2013-01-10 19:33:00,59.0,43.0,30.40,NE,34,3.0,7.0,56,0.00,,,0.00,,2013-01-11 00:33:00,
2013-01-10 19:42:00,59.0,43.0,30.40,NE,34,3.0,7.0,56,0.00,,,0.00,,2013-01-11 00:42:00,
2013-01-10 19:53:00,58.0,43.0,30.40,East,97,0.0,7.0,57,0.00,,,0.00,,2013-01-11 00:53:00,
2013-01-10 20:03:00,57.0,43.0,30.40,ENE,58,2.0,7.0,59,0.00,,,0.00,,2013-01-11 01:03:00,
2013-01-10 20:13:00,57.0,43.0,30.40,NE,35,1.0,7.0,60,0.00,,,0.00,,2013-01-11 01:13:00,
2013-01-10 20:33:00,57.0,44.0,30.40,NE,34,3.0,9.0,61,0.00,,,0.00,,2013-01-11 01:33:00,
2013-01-10 20:43:00,57.0,44.0,30.40,NE,34,3.0,9.0,61,0.00,,,0.00,,2013-01-11 01:43:00,
2013-01-10 20:53:00,57.0,45.0,30.40,NE,51,3.0,7.0,63,0.00,,,0.00,,2013-01-11 01:53:00,
2013-01-10 21:03:00,57.0,45.0,30.39,NNE,31,4.0,10.0,65,0.00,,,0.00,,2013-01-11 02:03:00,
2013-01-10 21:13:00,56.0,45.0,30.40,NE,52,2.0,7.0,67,0.00,,,0.00,,2013-01-11 02:13:00,
2013-01-10 21:23:00,56.0,45.0,30.40,NE,52,2.0,7.0,67,0.00,,,0.00,,2013-01-11 02:23:00,
2013-01-10 21:33:00,55.0,45.0,30.40,North,10,1.0,6.0,70,0.00,,,0.00,,2013-01-11 02:33:00,
2013-01-10 21:43:00,55.0,45.0,30.40,North,10,1.0,6.0,70,0.00,,,0.00,,2013-01-11 02:43:00,
2013-01-10 21:54:00,55.0,45.0,30.39,East,100,3.0,7.0,70,0.00,,,0.00,,2013-01-11 02:54:00,
2013-01-10 22:03:00,55.0,46.0,30.39,North,359,0.0,7.0,72,0.00,,,0.00,,2013-01-11 03:03:00,
2013-01-10 22:12:00,55.0,47.0,30.39,ESE,107,0.0,6.0,75,0.00,,,0.00,,2013-01-11 03:12:00,
2013-01-10 22:33:00,55.0,48.0,30.38,ESE,107,0.0,0.0,76,0.00,,,0.00,,2013-01-11 03:33:00,
2013-01-10 22:43:00,55.0,48.0,30.38,ESE,107,0.0,0.0,76,0.00,,,0.00,,2013-01-11 03:43:00,
2013-01-10 22:53:00,55.0,48.0,30.38,North,359,0.0,6.0,77,0.00,,,0.00,,2013-01-11 03:53:00,
2013-01-10 23:02:00,55.0,48.0,30.38,North,359,0.0,9.0,78,0.00,,,0.00,,2013-01-11 04:02:00,
2013-01-10 23:12:00,56.0,49.0,30.38,North,359,0.0,7.0,78,0.00,,,0.00,,2013-01-11 04:12:00,
2013-01-10 23:22:00,56.0,49.0,30.38,North,359,0.0,7.0,78,0.00,,,0.00,,2013-01-11 04:22:00,
2013-01-10 23:33:00,55.0,49.0,30.38,NNE,21,0.0,6.0,79,0.00,,,0.00,,2013-01-11 04:33:00,
2013-01-10 23:43:00,55.0,49.0,30.38,NNE,21,0.0,6.0,79,0.00,,,0.00,,2013-01-11 04:43:00,
2013-01-10 23:53:00,55.0,49.0,30.37,East,82,0.0,2.0,80,0.00,,,0.00,,2013-01-11 04:53:00,